CHALLENGER (42721 NORAD) Tracking and Keplerian Element Data

This shows tracking and keplerian element data for the satellite.

Feedback or suggestion? Click here.




ElementValue
Catalog42721
NameCHALLENGER
Epoch Orbit6563
Epoch Day198.4257915
Epoch Year2018
RAAN183.3161
Inclination51.6229
Eccentricity0.0005912
Argument of Perigee38.2712
Mean Anonmoly321.8715
Mean Motion15.969266
Decay Rate0.0027316
L11 42721U 98067MA 18198.42579150 .00273160 41067-4 62263-3 0 9999
L22 42721 51.6229 183.3161 0005912 38.2712 321.8715 15.96926600 65637

Live tracking and technical data element details for CHALLENGER (NORAD 42721). CHALLENGER can be tracked NOW for your location showing map with azimuth and elevation plus other details from your city location.

Track the satellite on the map from your city or location and see movement details for azimuth, elevation, latitude, longitude, range, height, and movement on the map or in text.







IsCatalogInMostPopularTable: catalog: 42721, numindb: 127
Update: records affected: 1



GetName: 42721 CHALLENGER

Hit Count: updated at: Thu, 19 Jul 2018 21:27:17 GMT